FW8044 Weather Reports


time (UTC)temp
C
wind
direction
speed
KPH
gust
KPH
rain 1hr
cm
rain 24hr
cm
rain mn
cm
humidity
%
barometer
mb
20260507134849 8 259 0.0 1.6 0.00 0.00 0.00 75 1014.5
20260507134345 8 234 1.6 1.6 0.00 0.00 0.00 75 1014.0
20260507133841 8 250 0.0 0.0 0.00 0.00 0.00 77 1014.1
20260507133337 7 232 1.6 1.6 0.00 0.00 0.00 77 1013.7
20260507132836 7 249 1.6 3.2 0.00 0.00 0.00 77 1014.0
20260507132331 7 265 0.0 3.2 0.00 0.00 0.00 77 1014.0
20260507131829 7 356 1.6 3.2 0.00 0.00 0.00 78 1013.9
20260507131325 7 13 1.6 3.2 0.00 0.00 0.00 77 1014.0
20260507130822 7 245 1.6 4.8 0.00 0.00 0.00 74 1014.0
20260507130319 7 286 1.6 3.2 0.00 0.00 0.00 73 1013.9
20260507125818 7 313 4.8 8.0 0.00 0.00 0.00 68 1013.8
20260507125315 8 248 3.2 4.8 0.00 0.00 0.00 66 1013.6
20260507124812 8 254 3.2 8.0 0.00 0.00 0.00 65 1013.5
20260507124309 8 255 8.0 9.7 0.00 0.00 0.00 64 1013.4
20260507123808 8 223 4.8 11.3 0.00 0.00 0.00 63 1013.4
20260507123305 7 212 4.8 11.3 0.00 0.00 0.00 63 1013.3
20260507122800 7 245 3.2 11.3 0.00 0.00 0.00 63 1013.4
20260507122256 7 225 4.8 9.7 0.00 0.00 0.00 64 1013.3
20260507121752 7 246 3.2 4.8 0.00 0.00 0.00 63 1013.5
20260507121248 6 210 4.8 4.8 0.00 0.00 0.00 64 1013.4
20260507120744 6 238 3.2 8.0 0.00 0.00 0.00 63 1013.2
20260507120241 6 247 1.6 8.0 0.00 0.00 0.00 64 1013.4
20260507115737 6 225 4.8 9.7 0.00 0.00 0.00 63 1013.3
20260507115233 6 215 4.8 9.7 0.00 0.00 0.00 63 1013.3
20260507114729 5 254 3.2 8.0 0.00 0.00 0.00 64 1013.5
20260507114227 5 219 6.4 11.3 0.00 0.00 0.00 64 1013.2
20260507113724 5 243 3.2 9.7 0.00 0.00 0.00 64 1013.2
20260507113220 5 208 4.8 4.8 0.00 0.00 0.00 63 1013.3
20260507112718 5 236 3.2 4.8 0.00 0.00 0.00 63 1013.2
20260507112215 5 230 3.2 8.0 0.00 0.00 0.00 63 1013.1
20260507111712 5 213 3.2 9.7 0.00 0.00 0.00 62 1013.3
20260507111209 5 212 4.8 4.8 0.00 0.00 0.00 62 1013.0
20260507110705 5 219 3.2 4.8 0.00 0.00 0.00 62 1013.0
20260507110202 5 212 4.8 4.8 0.00 0.00 0.00 61 1013.1
20260507105659 5 214 3.2 3.2 0.00 0.00 0.00 61 1013.2
20260507105155 5 218 4.8 8.0 0.00 0.00 0.00 60 1013.2
20260507104652 5 212 3.2 8.0 0.00 0.00 0.00 60 1013.3
20260507104148 5 210 3.2 3.2 0.00 0.00 0.00 60 1013.4
20260507103644 5 196 4.8 8.0 0.00 0.00 0.00 60 1013.5
20260507103141 5 197 3.2 4.8 0.00 0.00 0.00 60 1013.3
20260507102638 5 198 4.8 8.0 0.00 0.00 0.00 59 1013.4
20260507102134 5 207 4.8 9.7 0.00 0.00 0.00 59 1013.6
20260507101630 5 210 1.6 4.8 0.00 0.00 0.00 61 1013.5
20260507101126 5 227 1.6 4.8 0.00 0.00 0.00 60 1013.5
20260507100624 5 208 3.2 4.8 0.00 0.00 0.00 60 1013.4
20260507100122 5 220 3.2 4.8 0.00 0.00 0.00 60 1013.5
20260507095620 5 221 1.6 3.2 0.00 0.00 0.00 60 1013.8
20260507095116 6 222 1.6 3.2 0.00 0.00 0.00 58 1013.9
20260507094612 6 218 0.0 1.6 0.00 0.00 0.00 57 1013.8
20260507094109 6 205 1.6 3.2 0.00 0.00 0.00 56 1014.0
20260507093606 6 173 1.6 3.2 0.00 0.00 0.00 55 1014.1
20260507093105 6 215 1.6 3.2 0.00 0.00 0.00 54 1014.3
20260507092601 6 222 1.6 3.2 0.00 0.00 0.00 53 1014.3
20260507092058 6 226 0.0 3.2 0.00 0.00 0.00 53 1014.4
20260507091555 6 216 4.8 4.8 0.00 0.00 0.00 53 1014.2
20260507091051 6 209 4.8 4.8 0.00 0.00 0.00 53 1014.4
20260507090546 6 217 1.6 4.8 0.00 0.00 0.00 53 1014.5
20260507090044 6 219 1.6 4.8 0.00 0.00 0.00 53 1014.5
20260507085541 6 189 3.2 3.2 0.00 0.00 0.00 53 1014.4
20260507085037 6 215 3.2 8.0 0.00 0.00 0.00 54 1014.7
20260507084534 6 209 3.2 3.2 0.00 0.00 0.00 55 1014.7
20260507084031 6 223 3.2 4.8 0.00 0.00 0.00 55 1014.8
20260507083527 6 213 4.8 8.0 0.00 0.00 0.00 54 1014.7
20260507083025 6 225 4.8 4.8 0.00 0.00 0.00 54 1014.7
20260507082520 6 210 4.8 8.0 0.00 0.00 0.00 54 1014.9
20260507082017 6 219 3.2 4.8 0.00 0.00 0.00 54 1014.9
20260507081513 6 215 3.2 4.8 0.00 0.00 0.00 54 1015.0
20260507081010 6 209 1.6 9.7 0.00 0.00 0.00 53 1015.0
20260507080506 6 195 3.2 4.8 0.00 0.00 0.00 53 1015.1
20260507080002 6 220 3.2 8.0 0.00 0.00 0.00 53 1014.8
20260507075458 6 229 3.2 8.0 0.00 0.00 0.00 53 1015.1
20260507074954 6 223 4.8 8.0 0.00 0.00 0.00 52 1015.1
20260507074451 6 208 3.2 4.8 0.00 0.00 0.00 52 1015.1
20260507073950 6 231 4.8 9.7 0.00 0.00 0.00 52 1015.2
20260507073445 6 207 6.4 9.7 0.00 0.00 0.00 52 1015.1
20260507072942 6 189 6.4 11.3 0.00 0.00 0.00 52 1015.2
20260507072440 6 195 4.8 8.0 0.00 0.00 0.00 53 1015.3
20260507071937 6 217 3.2 9.7 0.00 0.00 0.00 52 1015.3
20260507071434 6 231 1.6 4.8 0.00 0.00 0.00 53 1015.5
20260507070930 6 201 3.2 4.8 0.00 0.00 0.00 53 1015.5
20260507070428 6 201 3.2 8.0 0.00 0.00 0.00 53 1015.4
20260507065924 6 223 3.2 8.0 0.00 0.00 0.00 53 1015.8
20260507065421 6 223 4.8 8.0 0.00 0.00 0.00 53 1015.6
20260507064913 6 215 3.2 4.8 0.00 0.00 0.00 53 1015.7
20260507064411 6 214 3.2 8.0 0.00 0.00 0.00 53 1015.6
20260507063909 6 230 4.8 9.7 0.00 0.00 0.00 52 1015.8
20260507063406 6 205 3.2 4.8 0.00 0.00 0.00 52 1015.8
20260507062903 6 223 3.2 4.8 0.00 0.00 0.00 51 1016.0
20260507062359 6 248 4.8 9.7 0.00 0.00 0.00 50 1015.8
20260507061857 6 221 3.2 8.0 0.00 0.00 0.00 51 1016.0
20260507061355 6 224 3.2 4.8 0.00 0.00 0.00 51 1016.1
20260507060853 6 240 3.2 4.8 0.00 0.00 0.00 50 1016.0
20260507060349 6 207 4.8 9.7 0.00 0.00 0.00 50 1016.3
20260507055846 6 204 3.2 4.8 0.00 0.00 0.00 49 1016.2
20260507055341 6 226 3.2 8.0 0.00 0.00 0.00 49 1016.1
20260507054838 6 224 4.8 4.8 0.00 0.00 0.00 48 1016.4
20260507054334 7 212 4.8 4.8 0.00 0.00 0.00 48 1016.3
20260507053832 7 225 4.8 8.0 0.00 0.00 0.00 47 1016.3
20260507053329 7 218 3.2 4.8 0.00 0.00 0.00 47 1016.3
20260507052828 7 213 3.2 4.8 0.00 0.00 0.00 47 1016.3
20260507052324 7 214 3.2 4.8 0.00 0.00 0.00 47 1016.4
20260507051822 7 225 3.2 3.2 0.00 0.00 0.00 47 1016.5
20260507051320 7 232 3.2 4.8 0.00 0.00 0.00 46 1016.5
20260507050816 7 207 3.2 4.8 0.00 0.00 0.00 46 1016.5
20260507050312 7 226 3.2 4.8 0.00 0.00 0.00 46 1016.4
20260507045809 7 220 4.8 4.8 0.00 0.00 0.00 45 1016.3
20260507045307 7 234 3.2 4.8 0.00 0.00 0.00 46 1016.6
20260507044803 7 219 3.2 4.8 0.00 0.00 0.00 46 1016.6
20260507044300 7 227 1.6 3.2 0.00 0.00 0.00 45 1016.5
20260507043756 7 229 3.2 4.8 0.00 0.00 0.00 44 1016.5
20260507043252 7 219 4.8 4.8 0.00 0.00 0.00 43 1016.8
20260507042749 7 221 3.2 8.0 0.00 0.00 0.00 44 1016.7
20260507042243 7 234 3.2 3.2 0.00 0.00 0.00 45 1016.6
20260507041742 7 227 3.2 4.8 0.00 0.00 0.00 45 1016.7
20260507041238 7 215 1.6 3.2 0.00 0.00 0.00 46 1016.6
20260507040735 6 227 1.6 3.2 0.00 0.00 0.00 48 1016.9
20260507040231 6 237 0.0 1.6 0.00 0.00 0.00 50 1016.8
20260507035727 7 242 0.0 0.0 0.00 0.00 0.00 47 1016.9
20260507035222 7 238 0.0 1.6 0.00 0.00 0.00 47 1016.8
20260507034720 7 235 1.6 3.2 0.00 0.00 0.00 44 1016.9
20260507034217 7 246 0.0 1.6 0.00 0.00 0.00 45 1017.0
20260507033716 7 244 0.0 1.6 0.00 0.00 0.00 45 1017.2
20260507033213 7 241 1.6 1.6 0.00 0.00 0.00 42 1016.8
20260507032710 8 240 0.0 1.6 0.00 0.00 0.00 40 1017.0
20260507032205 8 240 0.0 1.6 0.00 0.00 0.00 38 1017.0
20260507031703 8 247 0.0 1.6 0.00 0.00 0.00 37 1017.0
20260507031159 7 247 0.0 1.6 0.00 0.00 0.00 38 1017.1
20260507030656 7 247 0.0 0.0 0.00 0.00 0.00 40 1017.0
20260507030154 7 246 0.0 0.0 0.00 0.00 0.00 41 1017.1
20260507025651 7 243 0.0 0.0 0.00 0.00 0.00 41 1017.0
20260507025148 7 238 0.0 1.6 0.00 0.00 0.00 41 1016.9
20260507024646 8 238 0.0 0.0 0.00 0.00 0.00 42 1016.9
20260507024143 8 233 1.6 1.6 0.00 0.00 0.00 41 1017.0
20260507023638 8 243 0.0 0.0 0.00 0.00 0.00 42 1016.9
20260507023136 8 246 0.0 0.0 0.00 0.00 0.00 38 1016.7
20260507022633 8 248 0.0 0.0 0.00 0.00 0.00 38 1016.7
20260507022128 8 248 0.0 0.0 0.00 0.00 0.00 38 1016.8
20260507021625 9 249 0.0 0.0 0.00 0.00 0.00 37 1016.8
20260507021120 8 249 0.0 0.0 0.00 0.00 0.00 37 1016.6
20260507020619 8 250 0.0 0.0 0.00 0.00 0.00 38 1016.8
20260507020115 9 258 0.0 0.0 0.00 0.00 0.00 41 1016.8
20260507015613 9 252 0.0 0.0 0.00 0.00 0.00 40 1016.8
20260507015110 10 248 0.0 0.0 0.00 0.00 0.00 37 1016.6
20260507014607 10 247 0.0 0.0 0.00 0.00 0.00 36 1016.7
20260507014103 10 251 0.0 1.6 0.00 0.00 0.00 36 1016.9
20260507013559 10 249 0.0 0.0 0.00 0.00 0.00 36 1016.8
20260507013056 10 251 0.0 0.0 0.00 0.00 0.00 37 1016.7
20260507012553 10 256 0.0 0.0 0.00 0.00 0.00 36 1016.7
20260507012044 10 252 0.0 0.0 0.00 0.00 0.00 35 1016.8
20260507011542 10 249 0.0 0.0 0.00 0.00 0.00 35 1016.7
20260507011038 11 247 0.0 0.0 0.00 0.00 0.00 33 1016.8
20260507010532 11 227 1.6 1.6 0.00 0.00 0.00 32 1016.6
20260507010029 11 259 0.0 1.6 0.00 0.00 0.00 32 1016.6
20260507005527 12 270 0.0 3.2 0.00 0.00 0.00 31 1016.6
20260507005023 12 10 4.8 8.0 0.00 0.00 0.00 31 1016.8
20260507004520 12 2 1.6 8.0 0.00 0.00 0.00 30 1016.6
20260507004017 12 271 1.6 8.0 0.00 0.00 0.00 30 1016.8
20260507003512 13 16 3.2 9.7 0.00 0.00 0.00 29 1016.8
20260507003008 13 333 3.2 8.0 0.00 0.00 0.00 28 1016.7
20260507002504 13 257 0.0 3.2 0.00 0.00 0.00 28 1016.7
20260507002001 13 237 1.6 1.6 0.00 0.00 0.00 28 1016.7
20260507001457 13 254 1.6 4.8 0.00 0.00 0.00 27 1016.8
20260507000955 13 302 1.6 3.2 0.00 0.00 0.00 28 1016.9
20260507000450 13 275 6.4 11.3 0.00 0.00 0.00 27 1017.0
20260506235946 14 251 1.6 9.7 0.00 0.00 0.00 27 1017.1
20260506235444 14 7 3.2 8.0 0.00 0.00 0.00 27 1016.8
20260506234939 14 334 1.6 3.2 0.00 0.00 0.00 28 1017.0
20260506234437 15 294 3.2 3.2 0.00 0.00 0.00 26 1017.2
20260506233934 15 257 0.0 3.2 0.00 0.00 0.00 27 1016.9
20260506233431 15 268 3.2 3.2 0.00 0.00 0.00 27 1016.9
20260506232928 15 287 1.6 11.3 0.00 0.00 0.00 27 1017.0
20260506232424 15 252 1.6 8.0 0.00 0.00 0.00 27 1017.1
20260506231920 14 248 0.0 1.6 0.00 0.00 0.00 28 1017.1
20260506231418 13 258 1.6 4.8 0.00 0.00 0.00 28 1017.3
20260506230915 13 239 1.6 1.6 0.00 0.00 0.00 30 1017.1
20260506230411 13 241 1.6 3.2 0.00 0.00 0.00 29 1017.1
20260506225907 13 252 1.6 4.8 0.00 0.00 0.00 29 1017.3
20260506225405 13 245 3.2 4.8 0.00 0.00 0.00 30 1017.4
20260506224902 13 324 3.2 4.8 0.00 0.00 0.00 29 1017.2
20260506224359 13 12 4.8 11.3 0.00 0.00 0.00 29 1017.1
20260506223855 13 273 4.8 9.7 0.00 0.00 0.00 29 1017.3
20260506223350 13 84 9.7 12.9 0.00 0.00 0.00 28 1017.4
20260506222848 13 303 6.4 9.7 0.00 0.00 0.00 28 1017.2
20260506222343 13 277 8.0 9.7 0.00 0.00 0.00 28 1017.6
20260506221842 13 340 1.6 4.8 0.00 0.00 0.00 29 1017.3
20260506221339 13 335 3.2 4.8 0.00 0.00 0.00 28 1017.1
20260506220836 14 326 1.6 11.3 0.00 0.00 0.00 29 1017.3
20260506220331 15 25 8.0 20.9 0.00 0.00 0.00 27 1017.5
20260506215829 14 243 3.2 9.7 0.00 0.00 0.00 26 1017.4
20260506215324 13 236 4.8 8.0 0.00 0.00 0.00 27 1017.4
20260506214820 13 323 3.2 12.9 0.00 0.00 0.00 28 1017.3
20260506214317 13 230 9.7 11.3 0.00 0.00 0.00 28 1017.4
20260506213816 14 0 3.2 9.7 0.00 0.00 0.00 27 1017.4
20260506213312 15 284 3.2 4.8 0.00 0.00 0.00 28 1017.4
20260506212810 14 16 1.6 3.2 0.00 0.00 0.00 27 1017.5
20260506212307 15 263 9.7 16.1 0.00 0.00 0.00 27 1017.5
20260506211800 14 248 6.4 9.7 0.00 0.00 0.00 27 1017.4
20260506211257 14 265 1.6 4.8 0.00 0.00 0.00 27 1017.6
20260506210754 14 306 1.6 3.2 0.00 0.00 0.00 28 1017.5
20260506210251 13 43 3.2 8.0 0.00 0.00 0.00 28 1017.6
20260506205748 13 311 3.2 9.7 0.00 0.00 0.00 28 1017.8
20260506205244 14 263 4.8 8.0 0.00 0.00 0.00 28 1017.7
20260506204741 14 276 4.8 8.0 0.00 0.00 0.00 28 1018.0
20260506204238 15 273 1.6 12.9 0.00 0.00 0.00 26 1017.9
20260506203736 14 266 3.2 4.8 0.00 0.00 0.00 30 1017.9
20260506203233 15 276 3.2 14.5 0.00 0.00 0.00 27 1017.9
20260506202730 16 264 4.8 12.9 0.00 0.00 0.00 27 1017.9
20260506202227 16 191 6.4 16.1 0.00 0.00 0.00 25 1017.9
20260506201724 15 158 1.6 4.8 0.00 0.00 0.00 31 1017.9
20260506201220 15 298 6.4 12.9 0.00 0.00 0.00 27 1018.1
20260506200717 14 254 1.6 3.2 0.00 0.00 0.00 31 1018.1
20260506200214 14 323 4.8 14.5 0.00 0.00 0.00 30 1018.1
20260506195711 13 269 4.8 11.3 0.00 0.00 0.00 29 1018.1
20260506195207 14 203 6.4 11.3 0.00 0.00 0.00 30 1018.4
20260506194704 15 81 6.4 14.5 0.00 0.00 0.00 28 1018.2
20260506194201 14 247 8.0 17.7 0.00 0.00 0.00 28 1018.4
20260506193658 13 8 4.8 14.5 0.00 0.00 0.00 29 1018.2
20260506193155 13 254 8.0 16.1 0.00 0.00 0.00 28 1018.4
20260506192652 14 277 8.0 12.9 0.00 0.00 0.00 30 1018.2
20260506192148 13 266 3.2 4.8 0.00 0.00 0.00 31 1018.4
20260506191645 13 309 4.8 9.7 0.00 0.00 0.00 31 1018.4
20260506191141 13 247 1.6 9.7 0.00 0.00 0.00 31 1018.5
20260506190639 13 32 3.2 11.3 0.00 0.00 0.00 31 1018.5
20260506190135 13 296 3.2 4.8 0.00 0.00 0.00 32 1018.4
20260506185632 13 215 6.4 12.9 0.00 0.00 0.00 30 1018.2
20260506185128 13 221 1.6 11.3 0.00 0.00 0.00 31 1018.4
20260506184626 13 302 8.0 12.9 0.00 0.00 0.00 29 1018.4
20260506184123 14 290 4.8 11.3 0.00 0.00 0.00 30 1018.6
20260506183620 13 258 1.6 4.8 0.00 0.00 0.00 30 1018.6
20260506183116 13 251 4.8 8.0 0.00 0.00 0.00 32 1018.7
20260506182614 13 323 4.8 8.0 0.00 0.00 0.00 32 1018.9
20260506182110 13 334 3.2 4.8 0.00 0.00 0.00 31 1018.8
20260506181608 13 316 3.2 8.0 0.00 0.00 0.00 31 1018.7
20260506181105 13 277 3.2 14.5 0.00 0.00 0.00 32 1018.8
20260506180602 13 224 1.6 8.0 0.00 0.00 0.00 32 1018.8
20260506180058 12 337 3.2 17.7 0.00 0.00 0.00 32 1018.9
20260506175554 12 334 4.8 9.7 0.00 0.00 0.00 34 1018.9
20260506175051 11 212 3.2 3.2 0.00 0.00 0.00 34 1019.3
20260506174550 12 295 4.8 11.3 0.00 0.00 0.00 33 1019.1
20260506174045 12 217 4.8 4.8 0.00 0.00 0.00 34 1019.1
20260506173543 13 323 9.7 11.3 0.00 0.00 0.00 31 1019.1
20260506173040 13 249 3.2 4.8 0.00 0.00 0.00 34 1019.0
20260506172537 12 270 6.4 14.5 0.00 0.00 0.00 31 1019.2
20260506172033 12 275 1.6 4.8 0.00 0.00 0.00 32 1019.1
20260506171531 12 271 4.8 12.9 0.00 0.00 0.00 33 1018.8
20260506171028 12 239 4.8 4.8 0.00 0.00 0.00 33 1019.2
20260506170526 12 348 4.8 9.7 0.00 0.00 0.00 32 1019.2
20260506170018 11 253 4.8 8.0 0.00 0.00 0.00 35 1019.3
20260506165516 12 220 4.8 11.3 0.00 0.00 0.00 34 1019.5
20260506165012 12 37 4.8 4.8 0.00 0.00 0.00 33 1019.5
20260506164508 12 238 3.2 3.2 0.00 0.00 0.00 34 1019.0
20260506164006 12 269 3.2 9.7 0.00 0.00 0.00 33 1019.3
20260506163502 12 276 1.6 3.2 0.00 0.00 0.00 33 1019.2
20260506162956 12 222 4.8 8.0 0.00 0.00 0.00 33 1019.2
20260506162454 11 340 3.2 3.2 0.00 0.00 0.00 34 1019.3
20260506161945 12 308 6.4 12.9 0.00 0.00 0.00 32 1019.3
20260506161443 12 217 1.6 9.7 0.00 0.00 0.00 34 1019.2
20260506160940 12 289 3.2 8.0 0.00 0.00 0.00 33 1019.0
20260506160437 12 266 6.4 12.9 0.00 0.00 0.00 35 1019.0
20260506155935 12 225 1.6 8.0 0.00 0.00 0.00 36 1018.9
20260506155432 11 332 1.6 9.7 0.00 0.00 0.00 35 1019.2
20260506153554 11 220 4.8 8.0 0.00 0.00 0.00 37 1019.1
20260506153051 12 285 4.8 9.7 0.00 0.00 0.00 38 1019.0
20260506152548 11 23 1.6 3.2 0.00 0.00 0.00 40 1019.3
20260506152046 11 285 4.8 16.1 0.00 0.00 0.00 38 1019.1
20260506151544 11 183 3.2 3.2 0.00 0.00 0.00 37 1019.0
20260506151041 11 325 1.6 9.7 0.00 0.00 0.00 38 1018.9
20260506150537 11 11 4.8 4.8 0.00 0.00 0.00 38 1019.0
20260506150034 11 257 1.6 3.2 0.00 0.00 0.00 38 1019.1
20260506145531 10 263 3.2 3.2 0.00 0.00 0.00 41 1018.9
20260506145028 10 265 1.6 8.0 0.00 0.00 0.00 41 1019.1
20260506144525 10 259 3.2 3.2 0.00 0.00 0.00 42 1018.9
20260506144023 9 298 1.6 9.7 0.00 0.00 0.00 42 1019.1
20260506143520 9 6 4.8 4.8 0.00 0.00 0.00 43 1019.3
20260506143018 8 274 1.6 3.2 0.00 0.00 0.00 46 1018.9
20260506142515 8 23 3.2 11.3 0.00 0.00 0.00 46 1019.0
20260506142014 9 28 3.2 9.7 0.00 0.00 0.00 43 1019.2
20260506141511 8 7 4.8 4.8 0.00 0.00 0.00 46 1019.1
20260506141010 8 322 3.2 8.0 0.00 0.00 0.00 48 1019.0
20260506140507 8 346 1.6 9.7 0.00 0.00 0.00 49 1018.9
20260506140004 8 26 3.2 11.3 0.00 0.00 0.00 48 1018.8
20260506135500 8 338 1.6 3.2 0.00 0.00 0.00 49 1018.8